Newton, KS

4:19 AM CDT on September 22, 2019 (GMT -0500)
Newton City County

Weather History for KEWK - July, 2019

Change the Weather History Date:

Monday, July 15, 2019

  Actual Average Record
Temperature  
Mean Temperature 77 °F -  
Max Temperature 86 °F 89 °F 102 °F (2000)
Min Temperature 68 °F 67 °F 55 °F (2014)
Cooling Degree Days 12    
Growing Degree Days 27 (Base 50)    
Moisture  
Dew Point 68 °F    
Average Humidity 74    
Maximum Humidity 96    
Minimum Humidity 53    
Precipitation  
Precipitation 0.00 in - - ()
Sea Level Pressure  
Sea Level Pressure 29.93 in    
Wind  
Wind Speed 6 mph (ESE)    
Max Wind Speed 10 mph    
Max Gust Speed -    
Visibility 10 miles    
Events      
Averages and records for this station are not official NWS values.
T = Trace of Precipitation, MM = Missing Value Source: NWS Daily Summary

Daily Weather History Graph

Daily Weather History Graph

Search for Another Location

Airport or City:

Astronomy

Jul. 15, 2019 Rise Set
Actual Time 6:18 AM CDT 8:51 PM CDT
Civil Twilight 5:47 AM CDT 9:22 PM CDT
Nautical Twilight 5:09 AM CDT 10:00 PM CDT
Astronomical Twilight 4:27 AM CDT 10:42 PM CDT
Moon 8:09 PM CDT (7/15) 5:06 AM CDT (7/15)
Length of Visible Light 15h 34m
Length of Day
14h 33m
Waxing Gibbous, 99% of the Moon is Illuminated
Jul 15
Waxing Gibbous
Jul 16
Full
Jul 24
Last Quarter
Jul 31
New
Aug 7
First Quarter

Hourly Weather History & Observations

Time (CDT) Temp. Heat Index Dew Point Humidity Pressure Visibility Wind Dir Wind Speed Gust Speed Precip Events Conditions
12:56 AM 73.9 °F - 70.0 °F 87% 29.97 in 10.0 mi ESE 6.9 mph - N/A   Clear
1:56 AM 73.0 °F - 69.1 °F 87% 29.96 in 10.0 mi ESE 8.1 mph - N/A   Clear
2:56 AM 71.1 °F - 68.0 °F 90% 29.95 in 10.0 mi SE 6.9 mph - N/A   Clear
3:56 AM 70.0 °F - 68.0 °F 93% 29.94 in 10.0 mi ESE 8.1 mph - N/A   Clear
4:56 AM 69.1 °F - 66.9 °F 93% 29.95 in 10.0 mi SE 4.6 mph - N/A   Clear
5:56 AM 68.0 °F - 66.9 °F 96% 29.96 in 10.0 mi SE 5.8 mph - N/A   Clear
6:56 AM 68.0 °F - 66.0 °F 93% 29.97 in 10.0 mi SE 4.6 mph - N/A   Clear
7:56 AM 70.0 °F - 66.9 °F 90% 29.98 in 10.0 mi SE 5.8 mph - N/A   Clear
8:51 AM 73.4 °F - 68.0 °F 83% 30.03 in 10.0 mi SE 4.6 mph - N/A   Mostly Cloudy
8:56 AM 73.0 °F - 66.9 °F 81% 29.99 in 10.0 mi SSE 5.8 mph - N/A   Mostly Cloudy
9:24 AM 73.4 °F - 66.2 °F 78% 30.03 in 10.0 mi SE 5.8 mph - N/A   Scattered Clouds
9:56 AM 75.0 °F - 68.0 °F 79% 29.98 in 10.0 mi Calm Calm - N/A   Clear
10:56 AM 80.1 °F 82.9 °F 69.1 °F 69% 29.95 in 10.0 mi North 5.8 mph - N/A   Clear
11:40 AM 80.6 °F 83.9 °F 69.8 °F 70% 29.99 in 10.0 mi Variable 6.9 mph - N/A   Mostly Cloudy
11:56 AM 82.0 °F 84.9 °F 68.0 °F 62% 29.94 in 10.0 mi East 5.8 mph - N/A   Mostly Cloudy
12:04 PM 82.4 °F 85.4 °F 68.0 °F 62% 29.99 in 10.0 mi East 5.8 mph - N/A   Scattered Clouds
12:56 PM 82.9 °F 85.8 °F 68.0 °F 60% 29.92 in 10.0 mi ENE 9.2 mph - N/A   Clear
1:56 PM 82.9 °F 85.8 °F 68.0 °F 60% 29.91 in 10.0 mi Variable 3.5 mph - N/A   Clear
2:56 PM 84.9 °F 87.1 °F 66.0 °F 53% 29.90 in 10.0 mi Variable 5.8 mph - N/A   Unknown
3:56 PM 86.0 °F 89.4 °F 68.0 °F 55% 29.88 in 10.0 mi ESE 9.2 mph - N/A   Unknown
4:56 PM 86.0 °F 89.4 °F 68.0 °F 55% 29.88 in 10.0 mi East 6.9 mph - N/A   Clear
5:56 PM 86.0 °F 89.4 °F 68.0 °F 55% 29.87 in 10.0 mi East 6.9 mph - N/A   Clear
6:41 PM 84.2 °F 87.3 °F 68.0 °F 58% 29.90 in 10.0 mi ESE 10.4 mph - N/A   Partly Cloudy
6:56 PM 84.0 °F 87.0 °F 68.0 °F 58% 29.86 in 10.0 mi ESE 9.2 mph - N/A   Clear
7:56 PM 82.0 °F 84.9 °F 68.0 °F 62% 29.86 in 10.0 mi ESE 9.2 mph - N/A   Clear
8:56 PM 78.1 °F - 68.0 °F 71% 29.86 in 10.0 mi ESE 5.8 mph - N/A   Clear
9:56 PM 75.9 °F - 66.9 °F 74% 29.88 in 10.0 mi ESE 6.9 mph - N/A   Clear
10:56 PM 73.9 °F - 66.9 °F 79% 29.90 in 10.0 mi ESE 5.8 mph - N/A   Clear
11:56 PM 72.0 °F - 66.9 °F 84% 29.90 in 10.0 mi SE 5.8 mph - N/A   Clear